TimeMDT,TemperatureF,Dew PointF,Humidity,Sea Level PressureIn,VisibilityMPH,Wind Direction,Wind SpeedMPH,Gust SpeedMPH,PrecipitationIn,Events,Conditions,WindDirDegrees,DateUTC
12:53 AM,66.0,51.1,59,30.04,10.0,South,6.9,-,0.00,,Scattered Clouds,170,2013-08-13 06:53:00
1:53 AM,64.9,50.0,58,30.04,10.0,SSW,12.7,-,N/A,,Partly Cloudy,200,2013-08-13 07:53:00
2:53 AM,66.0,48.9,54,30.04,10.0,SW,5.8,-,N/A,,Partly Cloudy,220,2013-08-13 08:53:00
3:53 AM,61.0,48.9,64,30.05,10.0,NW,6.9,-,N/A,,Partly Cloudy,320,2013-08-13 09:53:00
4:53 AM,61.0,48.0,62,30.06,10.0,NW,8.1,-,N/A,,Partly Cloudy,310,2013-08-13 10:53:00
5:53 AM,59.0,46.9,64,30.06,10.0,NW,6.9,-,N/A,,Partly Cloudy,310,2013-08-13 11:53:00
6:53 AM,60.1,48.0,64,30.07,10.0,NNW,3.5,-,N/A,,Partly Cloudy,340,2013-08-13 12:53:00
7:53 AM,63.0,48.9,60,30.07,10.0,SW,9.2,-,N/A,,Partly Cloudy,220,2013-08-13 13:53:00
8:53 AM,64.9,51.1,61,30.10,10.0,SW,9.2,-,N/A,,Partly Cloudy,220,2013-08-13 14:53:00
9:53 AM,69.1,51.1,53,30.08,10.0,SSW,4.6,-,N/A,,Partly Cloudy,200,2013-08-13 15:53:00
10:53 AM,75.0,48.9,40,30.07,10.0,East,4.6,-,N/A,,Clear,90,2013-08-13 16:53:00
11:53 AM,78.1,50.0,37,30.07,10.0,East,5.8,-,N/A,,Partly Cloudy,90,2013-08-13 17:53:00
12:53 PM,81.0,52.0,36,30.04,10.0,NE,9.2,-,N/A,,Partly Cloudy,40,2013-08-13 18:53:00
1:53 PM,84.0,53.1,34,30.02,10.0,ENE,13.8,-,N/A,,Partly Cloudy,70,2013-08-13 19:53:00
2:53 PM,86.0,51.1,30,30.01,10.0,NE,17.3,21.9,N/A,,Partly Cloudy,50,2013-08-13 20:53:00
3:53 PM,84.0,51.1,32,30.01,10.0,ENE,16.1,-,N/A,,Scattered Clouds,60,2013-08-13 21:53:00
4:53 PM,82.0,51.1,34,30.01,10.0,ENE,15.0,-,N/A,,Scattered Clouds,60,2013-08-13 22:53:00
5:53 PM,81.0,51.1,35,30.02,10.0,NE,10.4,-,N/A,,Scattered Clouds,50,2013-08-13 23:53:00
6:53 PM,80.1,50.0,35,30.02,10.0,ENE,6.9,-,N/A,,Scattered Clouds,70,2013-08-14 00:53:00
7:38 PM,75.9,45.0,33,30.10,10.0,WSW,10.4,-,N/A,,Scattered Clouds,240,2013-08-14 01:38:00
7:53 PM,75.0,44.1,33,30.02,10.0,WSW,8.1,-,N/A,,Mostly Cloudy,240,2013-08-14 01:53:00
8:53 PM,73.0,45.0,37,30.01,10.0,SSW,9.2,-,N/A,,Mostly Cloudy,210,2013-08-14 02:53:00
9:53 PM,72.0,46.0,40,30.03,10.0,SW,9.2,-,N/A,,Scattered Clouds,230,2013-08-14 03:53:00
10:53 PM,73.9,42.1,32,30.02,10.0,WSW,12.7,-,N/A,,Partly Cloudy,240,2013-08-14 04:53:00
11:53 PM,69.1,42.1,38,30.03,10.0,NNW,5.8,-,N/A,,Partly Cloudy,330,2013-08-14 05:53:00